Track ORIGAMISAT-1 (FO-98) now! 10-day predictions ORIGAMISAT-1 (FO-98) is classified as:
1 43933U 19003B 19350.10963032 .00000661 00000-0 31950-4 0 9992 2 43933 97.2592 41.6343 0018118 165.7408 224.7066 15.21857734 50497